Starlink 11616

operational
NORAD ID: 63137 Int'l Des: 2025-043 Owner: SPXS Country: US Constellation: starlink
LEOCIRCULAR

Über Starlink 11616

Beschreibung wird geladen...

Live-Position

3D-Globus wird geladen...

Nächste Überflüge

Höhenverlauf

Altitude vs Time

uPlot chart will show altitude changes over time

Zweizeiliger Elementsatz

1 63137U 25043F 26034.84988269 .00319775 00000-0 23924-2 0 9997
2 63137 42.9998 94.3659 0000839 310.6312 49.4483 15.70924098 54157
Epoch: 3. Feb. 2026 • Age: 15 hours

Aktueller Status

Höhe 367.8 km
Geschwindigkeit 7.69 km/s
Subsatellitenpunkt -42.30°S, 43.61°E
Startdatum 3. März 2025
Alter 0.9 years
Typ internet

Technische Details

Klassifizierung Payload
Masse 960.00 kg
Trockenmasse 910.00 kg
Gesamtmasse 960.00 kg
Länge 0.30 m
Durchmesser 4.10 m
Spannweite 29.00 m
Form Box + pan
Hersteller SPXS
Bus-Typ Starlink V2MD
Phasenstatus In Orbit
Besitzer/Staat SPXS/US

Große Konstellationen

Loading constellations...